Time_in_sec,Latitude,Longitude,Altitude,Nbsat_max_qualitysignal,Nbsat_locked,valid_data
1314365459.61345220,0.00002988,0.00006703,-65282.08984375,1,1,0
1314365540.76560783,0.00002821,0.00006704,-68768.07812500,1,1,0
1314365540.80953479,0.00002816,0.00006711,-68770.25000000,1,1,0
1314365540.86452866,0.00002816,0.00006711,-68771.98437500,1,1,0
1314365540.91665268,0.00002816,0.00006711,-68774.58593750,1,1,0
1314365540.95766902,0.00002821,0.00006704,-68776.75781250,1,1,0
1314365541.01682544,0.00002821,0.00006704,-68778.49218750,1,1,0
1314365541.05747008,0.00002821,0.00006704,-68781.09375000,1,1,0
1314365541.11681223,0.00002821,0.00006704,-68782.82812500,1,1,0
1314365541.15767527,0.00002821,0.00006704,-68785.43750000,1,1,0
1314365541.21665835,0.00002820,0.00006704,-68787.17187500,1,1,0
1314365541.25765419,0.00002820,0.00006704,-68789.77343750,1,1,0
1314365541.31666708,0.00002820,0.00006704,-68791.50781250,1,1,0
1314365541.35655808,0.00002820,0.00006704,-68794.10937500,1,1,0
1314365541.40472317,0.00002820,0.00006704,-68795.84375000,1,1,0
1314365541.45663381,0.00002814,0.00006711,-68798.01562500,1,1,0
1314365541.51761341,0.00002820,0.00006704,-68800.18750000,1,1,0
1314365541.56450391,0.00002820,0.00006704,-68802.78906250,1,1,0
1314365541.61748576,0.00002814,0.00006711,-68804.96093750,1,1,0
1314365541.65766740,0.00002819,0.00006704,-68807.12500000,1,1,0
1314365541.71746969,0.00002819,0.00006704,-68808.85937500,1,1,0
1314365541.75669980,0.00002819,0.00006704,-68811.46875000,1,1,0
1314365541.81663704,0.00002819,0.00006704,-68813.20312500,1,1,0
1314365541.86551046,0.00002819,0.00006704,-68815.80468750,1,1,0
1314365541.91746521,0.00002814,0.00006711,-68817.97656250,1,1,0
1314365541.96465898,0.00002819,0.00006704,-68820.14062500,1,1,0
1314365542.01750493,0.00002813,0.00006711,-68822.31250000,1,1,0
1314365542.06549907,0.00002819,0.00006704,-68824.48437500,1,1,0
1314365542.10950208,0.00002813,0.00006711,-68826.65625000,1,1,0
1314365542.16446590,0.00002813,0.00006711,-68828.39062500,1,1,0
1314365542.20846462,0.00002813,0.00006711,-68830.99218750,1,1,0
1314365542.26546407,0.00002813,0.00006711,-68832.72656250,1,1,0
1314365542.31749201,0.00002813,0.00006711,-68835.32812500,1,1,0
1314365542.36464381,0.00002818,0.00006704,-68837.50000000,1,1,0
1314365542.41359663,0.00002813,0.00006711,-68839.67187500,1,1,0
1314365542.45665908,0.00002818,0.00006704,-68841.84375000,1,1,0
1314365542.51745749,0.00002818,0.00006704,-68843.57812500,1,1,0
1314365542.55665636,0.00002818,0.00006704,-68846.17968750,1,1,0
1314365542.61664701,0.00002818,0.00006704,-68847.91406250,1,1,0
1314365542.65745044,0.00002817,0.00006704,-68850.52343750,1,1,0
1314365542.71666789,0.00002817,0.00006704,-68852.25781250,1,1,0
1314365542.75664425,0.00002817,0.00006704,-68854.85937500,1,1,0
1314365542.81662798,0.00002817,0.00006704,-68856.59375000,1,1,0
1314365542.85753107,0.00002817,0.00006704,-68859.20312500,1,1,0
1314365542.91769266,0.00002817,0.00006704,-68860.93750000,1,1,0
1314365542.96454954,0.00002817,0.00006704,-68863.53906250,1,1,0
1314365543.01392984,0.00002811,0.00006711,-68865.71093750,1,1,0
1314365543.06550765,0.00002817,0.00006704,-68867.88281250,1,1,0
1314365543.11755848,0.00002811,0.00006711,-68870.05468750,1,1,0
1314365543.15762258,0.00002816,0.00006704,-68872.21875000,1,1,0
1314365543.22550106,0.00002816,0.00006704,-68873.96093750,1,1,0
1314365543.25665212,0.00002811,0.00006711,-68877.00000000,1,1,0
1314365543.31745934,0.00002816,0.00006704,-68878.29687500,1,1,0
1314365543.36559391,0.00002816,0.00006704,-68880.90625000,1,1,0
1314365543.41664386,0.00002811,0.00006711,-68883.07031250,1,1,0
1314365543.45746279,0.00002816,0.00006704,-68885.24218750,1,1,0
1314365543.50466394,0.00002816,0.00006704,-68886.97656250,1,1,0
1314365543.55764890,0.00002810,0.00006711,-68889.14843750,1,1,0
1314365543.61746573,0.00002816,0.00006704,-68891.32031250,1,1,0
1314365543.66461658,0.00002815,0.00006704,-68893.92187500,1,1,0
1314365543.71751904,0.00002810,0.00006711,-68896.09375000,1,1,0
1314365543.75656581,0.00002815,0.00006704,-68898.26562500,1,1,0
1314365543.80458951,0.00002815,0.00006704,-68900.00000000,1,1,0
1314365543.86458206,0.00002810,0.00006711,-68902.17187500,1,1,0
1314365543.91766405,0.00002810,0.00006711,-68904.78125000,1,1,0
1314365543.96549153,0.00002815,0.00006704,-68906.95312500,1,1,0
1314365544.01750588,0.00002810,0.00006712,-68909.11718750,1,1,0
1314365544.05664873,0.00002815,0.00006704,-68911.28906250,1,1,0
1314365544.11753440,0.00002815,0.00006704,-68913.03125000,1,1,0
1314365544.15746856,0.00002815,0.00006704,-68915.63281250,1,1,0
1314365544.21758866,0.00002814,0.00006704,-68917.36718750,1,1,0
1314365544.26353455,0.00002814,0.00006704,-68919.97656250,1,1,0
1314365544.31357408,0.00002809,0.00006712,-68922.14843750,1,1,0
1314365544.35663891,0.00002814,0.00006704,-68924.32031250,1,1,0
1314365544.40912676,0.00002814,0.00006704,-68926.05468750,1,1,0
1314365544.45662451,0.00002809,0.00006712,-68928.22656250,1,1,0
1314365544.51354003,0.00002814,0.00006704,-68930.39843750,1,1,0
1314365544.56449866,0.00002814,0.00006704,-68933.00000000,1,1,0
1314365544.61658788,0.00002808,0.00006712,-68935.17187500,1,1,0
1314365544.66952276,0.00002814,0.00006704,-68937.34375000,1,1,0
1314365544.71367002,0.00002808,0.00006712,-68939.51562500,1,1,0
1314365544.75762320,0.00002813,0.00006704,-68941.68750000,1,1,0
1314365544.81746221,0.00002813,0.00006704,-68943.42187500,1,1,0
1314365544.85755491,0.00002813,0.00006704,-68946.02343750,1,1,0
1314365544.91356230,0.00002813,0.00006704,-68947.76562500,1,1,0
1314365544.96554804,0.00002813,0.00006704,-68950.36718750,1,1,0
1314365545.01687694,0.00002808,0.00006712,-68952.53906250,1,1,0
1314365545.05652070,0.00002813,0.00006704,-68954.71093750,1,1,0
1314365545.11678672,0.00002813,0.00006704,-68956.44531250,1,1,0
1314365545.15658379,0.00002813,0.00006704,-68959.05468750,1,1,0
1314365545.21745658,0.00002812,0.00006704,-68960.78906250,1,1,0
1314365545.25676346,0.00002812,0.00006704,-68963.39843750,1,1,0
1314365545.31746578,0.00002812,0.00006704,-68965.13281250,1,1,0
1314365545.36454821,0.00002812,0.00006704,-68967.74218750,1,1,0
1314365545.41662598,0.00002807,0.00006712,-68969.91406250,1,1,0
1314365545.46548653,0.00002812,0.00006704,-68972.07812500,1,1,0
1314365545.51362062,0.00002807,0.00006712,-68974.25000000,1,1,0
1314365545.56461215,0.00002812,0.00006704,-68976.42187500,1,1,0
1314365545.61358309,0.00002806,0.00006712,-68978.59375000,1,1,0
1314365545.65659046,0.00002812,0.00006704,-68980.76562500,1,1,0
1314365545.71348953,0.00002811,0.00006704,-68982.50781250,1,1,0
1314365545.75753284,0.00002811,0.00006704,-68985.10937500,1,1,0
1314365545.81652617,0.00002811,0.00006704,-68986.85156250,1,1,0
1314365545.86670732,0.00002811,0.00006704,-68989.45312500,1,1,0
1314365545.90648317,0.00002806,0.00006712,-68991.62500000,1,1,0
1314365545.96461177,0.00002806,0.00006712,-68993.35937500,1,1,0
1314365546.00458717,0.00002806,0.00006712,-68995.96875000,1,1,0
1314365546.06562734,0.00002806,0.00006712,-68997.70312500,1,1,0
1314365546.11350727,0.00002805,0.00006712,-69000.31250000,1,1,0
1314365546.16548443,0.00002811,0.00006704,-69002.48437500,1,1,0
1314365546.21362209,0.00002805,0.00006712,-69004.65625000,1,1,0
1314365546.25744510,0.00002810,0.00006704,-69006.82812500,1,1,0
1314365546.30459452,0.00002810,0.00006704,-69008.56250000,1,1,0
1314365546.36566949,0.00002805,0.00006712,-69010.73437500,1,1,0
1314365546.41347766,0.00002805,0.00006712,-69013.34375000,1,1,0
1314365546.46460366,0.00002810,0.00006704,-69015.51562500,1,1,0
1314365546.51352215,0.00002805,0.00006712,-69017.68750000,1,1,0
1314365546.56450653,0.00002810,0.00006704,-69019.85937500,1,1,0
1314365546.61653876,0.00002804,0.00006712,-69022.03125000,1,1,0
1314365546.65748334,0.00002809,0.00006704,-69024.20312500,1,1,0
1314365546.71349144,0.00002809,0.00006704,-69025.93750000,1,1,0
1314365546.76565266,0.00002809,0.00006704,-69028.54687500,1,1,0
1314365546.81354928,0.00002804,0.00006712,-69030.71875000,1,1,0
1314365546.86560059,0.00002809,0.00006704,-69032.89062500,1,1,0
1314365546.91350937,0.00002804,0.00006712,-69035.06250000,1,1,0
1314365546.96453881,0.00002809,0.00006704,-69037.23437500,1,1,0
1314365547.01723838,0.00002804,0.00006712,-69039.40625000,1,1,0
1314365547.05749106,0.00002809,0.00006704,-69041.57812500,1,1,0
1314365547.11650681,0.00002809,0.00006704,-69043.31250000,1,1,0
1314365547.15668488,0.00002808,0.00006704,-69045.92187500,1,1,0
1314365547.21349978,0.00002808,0.00006704,-69047.66406250,1,1,0
1314365547.25749946,0.00002808,0.00006704,-69050.26562500,1,1,0
1314365547.30953288,0.00002808,0.00006704,-69052.00781250,1,1,0
1314365547.36453867,0.00002803,0.00006713,-69054.17968750,1,1,0
1314365547.41347837,0.00002803,0.00006713,-69056.78906250,1,1,0
1314365547.45744205,0.00002808,0.00006704,-69058.96093750,1,1,0
1314365547.51349783,0.00002808,0.00006704,-69060.69531250,1,1,0
1314365547.56454754,0.00002808,0.00006704,-69063.30468750,1,1,0
1314365547.60474348,0.00002802,0.00006713,-69065.47656250,1,1,0
1314365547.66558480,0.00002802,0.00006713,-69067.21093750,1,1,0
1314365547.71347237,0.00002802,0.00006713,-69069.82031250,1,1,0
1314365547.76549554,0.00002807,0.00006704,-69071.99218750,1,1,0
1314365547.81351495,0.00002802,0.00006713,-69074.16406250,1,1,0
1314365547.86651397,0.00002807,0.00006704,-69076.33593750,1,1,0
1314365547.91345406,0.00002802,0.00006713,-69078.50781250,1,1,0
1314365547.96855354,0.00002807,0.00006705,-69080.68750000,1,1,0
1314365548.01345062,0.00002802,0.00006713,-69082.85937500,1,1,0
1314365548.05653572,0.00002807,0.00006705,-69085.03125000,1,1,0
1314365548.11347055,0.00002806,0.00006705,-69086.76562500,1,1,0
1314365548.16545606,0.00002806,0.00006705,-69089.37500000,1,1,0
1314365548.21662331,0.00002801,0.00006713,-69091.54687500,1,1,0
1314365548.26448178,0.00002806,0.00006705,-69093.71875000,1,1,0
1314365548.31750727,0.00002801,0.00006713,-69095.89062500,1,1,0
1314365548.36448312,0.00002806,0.00006705,-69098.07031250,1,1,0
1314365548.41345263,0.00002801,0.00006713,-69100.24218750,1,1,0
1314365548.46544957,0.00002806,0.00006705,-69102.41406250,1,1,0
1314365548.51344752,0.00002800,0.00006713,-69104.58593750,1,1,0
1314365548.56548452,0.00002806,0.00006705,-69106.75781250,1,1,0
1314365548.61684632,0.00002800,0.00006713,-69108.92968750,1,1,0
1314365548.66553187,0.00002805,0.00006705,-69111.10156250,1,1,0
1314365548.71354580,0.00002800,0.00006713,-69113.28125000,1,1,0
1314365548.76455426,0.00002805,0.00006705,-69115.45312500,1,1,0
1314365548.80552506,0.00002800,0.00006713,-69117.62500000,1,1,0
1314365548.86554503,0.00002800,0.00006713,-69119.36718750,1,1,0
1314365548.91353941,0.00002800,0.00006713,-69121.96875000,1,1,0
1314365548.96448112,0.00002805,0.00006705,-69124.14843750,1,1,0
1314365549.01390147,0.00002799,0.00006713,-69126.32031250,1,1,0
1314365549.06545615,0.00002805,0.00006705,-69128.49218750,1,1,0
1314365549.11708140,0.00002799,0.00006713,-69130.66406250,1,1,0
1314365549.16446066,0.00002804,0.00006705,-69132.83593750,1,1,0
1314365549.21361160,0.00002799,0.00006713,-69135.01562500,1,1,0
1314365549.26552081,0.00002804,0.00006705,-69137.18750000,1,1,0
1314365549.31346107,0.00002799,0.00006713,-69139.35937500,1,1,0
1314365549.36553288,0.00002804,0.00006705,-69141.53125000,1,1,0
1314365549.41381359,0.00002799,0.00006713,-69143.70312500,1,1,0
1314365549.46546698,0.00002804,0.00006705,-69145.88281250,1,1,0
1314365549.51753569,0.00002798,0.00006714,-69148.05468750,1,1,0
1314365549.56455803,0.00002803,0.00006705,-69150.22656250,1,1,0
1314365549.61346507,0.00002798,0.00006714,-69152.39843750,1,1,0
1314365549.66552544,0.00002803,0.00006705,-69154.57031250,1,1,0
1314365549.71344972,0.00002798,0.00006714,-69156.75000000,1,1,0
1314365549.76552916,0.00002803,0.00006705,-69158.92187500,1,1,0
1314365549.81352639,0.00002798,0.00006714,-69161.09375000,1,1,0
1314365549.86547613,0.00002803,0.00006705,-69163.26562500,1,1,0
1314365549.91339302,0.00002798,0.00006714,-69165.44531250,1,1,0
1314365549.96553159,0.00002803,0.00006705,-69167.61718750,1,1,0
1314365550.01345801,0.00002797,0.00006714,-69169.78906250,1,1,0
1314365550.06540537,0.00002802,0.00006705,-69171.96093750,1,1,0
1314365550.11344957,0.00002797,0.00006714,-69174.14062500,1,1,0
1314365550.16549420,0.00002802,0.00006705,-69176.31250000,1,1,0
1314365550.21363187,0.00002797,0.00006714,-69178.48437500,1,1,0
1314365550.26547289,0.00002802,0.00006705,-69180.65625000,1,1,0
1314365550.31647420,0.00002797,0.00006714,-69182.83593750,1,1,0
1314365550.36551523,0.00002802,0.00006706,-69185.00781250,1,1,0
1314365550.41346407,0.00002797,0.00006714,-69187.17968750,1,1,0
1314365550.46551633,0.00002802,0.00006706,-69189.35937500,1,1,0
1314365550.51348233,0.00002796,0.00006714,-69191.53125000,1,1,0
1314365550.56452560,0.00002801,0.00006706,-69193.70312500,1,1,0
1314365550.61335397,0.00002796,0.00006714,-69195.87500000,1,1,0
1314365550.66952419,0.00002801,0.00006706,-69198.05468750,1,1,0
1314365550.71653414,0.00002796,0.00006714,-69200.22656250,1,1,0
1314365550.76853204,0.00002801,0.00006706,-69202.39843750,1,1,0
1314365550.81735063,0.00002796,0.00006714,-69204.57812500,1,1,0
1314365550.86452365,0.00002801,0.00006706,-69206.75000000,1,1,0
1314365550.91344070,0.00002795,0.00006714,-69208.92187500,1,1,0
1314365550.96544409,0.00002800,0.00006706,-69211.10156250,1,1,0
1314365551.01346898,0.00002795,0.00006714,-69213.27343750,1,1,0
1314365551.06544733,0.00002800,0.00006706,-69215.44531250,1,1,0
1314365551.11334491,0.00002795,0.00006714,-69217.62500000,1,1,0
1314365551.16534662,0.00002800,0.00006706,-69219.79687500,1,1,0
1314365551.22504640,0.00002795,0.00006714,-69221.96875000,1,1,0
1314365551.26549745,0.00002795,0.00006714,-69224.57812500,1,1,0
1314365551.31345963,0.00002795,0.00006714,-69226.32031250,1,1,0
1314365551.36452579,0.00002800,0.00006706,-69228.49218750,1,1,0
1314365551.41650653,0.00002794,0.00006714,-69230.67187500,1,1,0
1314365551.46558070,0.00002799,0.00006706,-69232.84375000,1,1,0
1314365551.51648331,0.00002794,0.00006714,-69235.01562500,1,1,0
1314365551.56854534,0.00002799,0.00006706,-69237.19531250,1,1,0
1314365551.61345172,0.00002794,0.00006715,-69239.36718750,1,1,0
1314365551.66546845,0.00002799,0.00006706,-69241.54687500,1,1,0
1314365551.71346831,0.00002794,0.00006715,-69243.71875000,1,1,0
1314365551.76548648,0.00002799,0.00006706,-69245.89062500,1,1,0
1314365551.81741238,0.00002794,0.00006715,-69248.07031250,1,1,0
1314365551.86550283,0.00002799,0.00006706,-69250.24218750,1,1,0
1314365551.91342521,0.00002793,0.00006715,-69252.41406250,1,1,0
1314365551.96448469,0.00002798,0.00006706,-69254.59375000,1,1,0
1314365552.01348615,0.00002793,0.00006715,-69256.76562500,1,1,0
1314365552.06546712,0.00002798,0.00006706,-69258.94531250,1,1,0
1314365552.11388254,0.00002793,0.00006715,-69261.11718750,1,1,0
1314365552.16548800,0.00002798,0.00006706,-69263.28906250,1,1,0
1314365552.21348953,0.00002793,0.00006715,-69265.46875000,1,1,0
1314365552.26948309,0.00002798,0.00006706,-69267.64062500,1,1,0
1314365552.31332779,0.00002793,0.00006715,-69269.82031250,1,1,0
1314365552.36548543,0.00002797,0.00006706,-69271.99218750,1,1,0
1314365552.41649413,0.00002792,0.00006715,-69274.17187500,1,1,0
1314365552.46480227,0.00002797,0.00006707,-69276.34375000,1,1,0
1314365552.51345062,0.00002792,0.00006715,-69278.52343750,1,1,0
1314365552.56446600,0.00002797,0.00006707,-69280.69531250,1,1,0
1314365552.61350536,0.00002792,0.00006715,-69282.86718750,1,1,0
1314365552.66640902,0.00002797,0.00006707,-69285.04687500,1,1,0
1314365552.71728849,0.00002792,0.00006715,-69287.21875000,1,1,0
1314365552.76551104,0.00002797,0.00006707,-69289.39843750,1,1,0
1314365552.82049274,0.00002792,0.00006715,-69291.57031250,1,1,0
1314365552.86447573,0.00002796,0.00006707,-69293.75000000,1,1,0
1314365552.91346121,0.00002791,0.00006715,-69295.92187500,1,1,0
1314365552.96548438,0.00002796,0.00006707,-69298.10156250,1,1,0
1314365553.01648426,0.00002791,0.00006715,-69300.27343750,1,1,0
1314365553.06547499,0.00002796,0.00006707,-69302.44531250,1,1,0
1314365553.12059665,0.00002791,0.00006715,-69304.62500000,1,1,0
1314365553.16529608,0.00002796,0.00006707,-69306.79687500,1,1,0
1314365553.21350002,0.00002791,0.00006715,-69308.97656250,1,1,0
1314365553.26549459,0.00002795,0.00006707,-69311.14843750,1,1,0
1314365553.31414890,0.00002791,0.00006715,-69313.32812500,1,1,0
1314365553.36557674,0.00002795,0.00006707,-69315.50000000,1,1,0
1314365553.41754341,0.00002790,0.00006715,-69317.67968750,1,1,0
1314365553.46548748,0.00002795,0.00006707,-69319.85156250,1,1,0
1314365553.51659656,0.00002790,0.00006715,-69322.03125000,1,1,0
1314365553.56458044,0.00002795,0.00006707,-69324.20312500,1,1,0
1314365553.61726356,0.00002790,0.00006716,-69326.38281250,1,1,0
1314365553.66467476,0.00002795,0.00006707,-69328.55468750,1,1,0
1314365553.71346045,0.00002790,0.00006716,-69330.73437500,1,1,0
1314365553.76549029,0.00002794,0.00006707,-69332.90625000,1,1,0
1314365553.81653547,0.00002789,0.00006716,-69335.08593750,1,1,0
1314365553.86570787,0.00002794,0.00006707,-69337.25781250,1,1,0
1314365553.91547775,0.00002789,0.00006716,-69339.43750000,1,1,0
1314365553.96528077,0.00002794,0.00006707,-69341.61718750,1,1,0
1314365554.01322937,0.00002789,0.00006716,-69343.78906250,1,1,0
1314365554.06468558,0.00002794,0.00006707,-69345.96875000,1,1,0
1314365554.11346698,0.00002789,0.00006716,-69348.14062500,1,1,0
1314365554.16537786,0.00002793,0.00006708,-69350.32031250,1,1,0
1314365554.21658325,0.00002789,0.00006716,-69352.49218750,1,1,0
1314365554.26559258,0.00002793,0.00006708,-69354.67187500,1,1,0
1314365554.31794143,0.00002788,0.00006716,-69356.84375000,1,1,0
1314365554.36859608,0.00002793,0.00006708,-69359.02343750,1,1,0
1314365554.41346359,0.00002788,0.00006716,-69361.20312500,1,1,0
1314365554.46451807,0.00002793,0.00006708,-69363.37500000,1,1,0
1314365554.51345062,0.00002788,0.00006716,-69365.55468750,1,1,0
1314365554.56467772,0.00002792,0.00006708,-69367.72656250,1,1,0
1314365554.61659551,0.00002788,0.00006716,-69369.90625000,1,1,0
1314365554.66553235,0.00002792,0.00006708,-69372.07812500,1,1,0
1314365554.71361208,0.00002788,0.00006716,-69374.25781250,1,1,0
1314365554.76454926,0.00002792,0.00006708,-69376.43750000,1,1,0
1314365554.82543564,0.00002787,0.00006716,-69378.60937500,1,1,0
1314365554.86521983,0.00002787,0.00006716,-69381.22656250,1,1,0
1314365554.91345906,0.00002787,0.00006716,-69382.96093750,1,1,0
1314365554.96551633,0.00002792,0.00006708,-69385.14062500,1,1,0
1314365555.01658893,0.00002787,0.00006716,-69387.32031250,1,1,0
1314365555.06574368,0.00002791,0.00006708,-69389.49218750,1,1,0
1314365555.11332703,0.00002787,0.00006716,-69391.67187500,1,1,0
1314365555.16457653,0.00002791,0.00006708,-69393.84375000,1,1,0
1314365555.21318293,0.00002787,0.00006716,-69396.02343750,1,1,0
1314365555.26469064,0.00002791,0.00006708,-69398.20312500,1,1,0
1314365555.30547953,0.00002786,0.00006717,-69400.37500000,1,1,0
1314365555.36561155,0.00002786,0.00006717,-69402.11718750,1,1,0
1314365555.41441560,0.00002786,0.00006717,-69404.73437500,1,1,0
1314365555.46551228,0.00002790,0.00006708,-69406.90625000,1,1,0
1314365555.51589465,0.00002786,0.00006717,-69409.08593750,1,1,0
1314365555.56458974,0.00002790,0.00006708,-69411.25781250,1,1,0
1314365555.61722422,0.00002786,0.00006717,-69413.43750000,1,1,0
1314365555.66532135,0.00002790,0.00006709,-69415.61718750,1,1,0
1314365555.71345878,0.00002786,0.00006717,-69417.78906250,1,1,0
1314365555.77318764,0.00002790,0.00006709,-69419.96875000,1,1,0
1314365555.81349254,0.00002790,0.00006709,-69422.58593750,1,1,0
1314365555.86849856,0.00002790,0.00006709,-69424.32031250,1,1,0
1314365555.90947795,0.00002785,0.00006717,-69426.50000000,1,1,0
1314365555.96550012,0.00002785,0.00006717,-69428.24218750,1,1,0
1314365556.02552199,0.00002785,0.00006717,-69430.85156250,1,1,0
1314365556.06523275,0.00002785,0.00006717,-69433.46875000,1,1,0
1314365556.11346149,0.00002785,0.00006717,-69435.21093750,1,1,0
1314365556.16551280,0.00002789,0.00006709,-69437.38281250,1,1,0
1314365556.21662402,0.00002785,0.00006717,-69439.56250000,1,1,0
1314365556.26553893,0.00002789,0.00006709,-69441.74218750,1,1,0
1314365556.31351137,0.00002784,0.00006717,-69443.92187500,1,1,0
1314365556.36446834,0.00002789,0.00006709,-69446.09375000,1,1,0
1314365556.40547824,0.00002784,0.00006717,-69448.27343750,1,1,0
1314365556.46509814,0.00002784,0.00006717,-69450.01562500,1,1,0
1314365556.51346636,0.00002784,0.00006717,-69452.62500000,1,1,0
1314365556.55723667,0.00002788,0.00006709,-69454.80468750,1,1,0
1314365556.61328149,0.00002788,0.00006709,-69456.54687500,1,1,0
1314365556.66556096,0.00002788,0.00006709,-69459.15625000,1,1,0
1314365556.70550442,0.00002783,0.00006717,-69461.33593750,1,1,0
1314365556.76491547,0.00002783,0.00006717,-69463.07812500,1,1,0
1314365556.80544686,0.00002783,0.00006718,-69465.69531250,1,1,0
1314365556.86553049,0.00002783,0.00006718,-69467.42968750,1,1,0
1314365556.91345739,0.00002783,0.00006718,-69470.04687500,1,1,0
1314365556.95751834,0.00002787,0.00006710,-69472.22656250,1,1,0
1314365557.01348376,0.00002787,0.00006710,-69473.96875000,1,1,0
1314365557.06852984,0.00002787,0.00006710,-69476.57812500,1,1,0
1314365557.11646700,0.00002783,0.00006718,-69478.75781250,1,1,0
1314365557.15646195,0.00002787,0.00006710,-69480.93750000,1,1,0
1314365557.20547724,0.00002787,0.00006710,-69482.67968750,1,1,0
1314365557.26846147,0.00002782,0.00006718,-69484.85156250,1,1,0
1314365557.30614495,0.00002782,0.00006718,-69487.46875000,1,1,0
1314365557.36546755,0.00002782,0.00006718,-69489.21093750,1,1,0
1314365557.41646051,0.00002782,0.00006718,-69491.82031250,1,1,0
1314365557.46547174,0.00002786,0.00006710,-69494.00000000,1,1,0
1314365557.51596522,0.00002782,0.00006718,-69496.17968750,1,1,0
1314365557.56548786,0.00002786,0.00006710,-69498.35937500,1,1,0
1314365557.62509680,0.00002782,0.00006718,-69500.53125000,1,1,0
1314365557.66559529,0.00002782,0.00006718,-69503.14843750,1,1,0
1314365557.71344519,0.00002781,0.00006718,-69504.89062500,1,1,0
1314365557.76549554,0.00002786,0.00006710,-69507.07031250,1,1,0
1314365557.81661177,0.00002781,0.00006718,-69509.24218750,1,1,0
1314365557.86545682,0.00002786,0.00006711,-69511.42187500,1,1,0
1314365557.91760707,0.00002781,0.00006718,-69513.60156250,1,1,0
1314365557.95658469,0.00002785,0.00006711,-69515.78125000,1,1,0
1314365558.01748228,0.00002785,0.00006711,-69517.52343750,1,1,0
1314365558.05721116,0.00002785,0.00006711,-69520.13281250,1,1,0
1314365558.11345816,0.00002785,0.00006711,-69521.87500000,1,1,0
1314365558.15763140,0.00002785,0.00006711,-69524.49218750,1,1,0
1314365558.21318245,0.00002785,0.00006711,-69526.23437500,1,1,0
1314365558.26548815,0.00002785,0.00006711,-69528.85156250,1,1,0
1314365558.31360769,0.00002780,0.00006719,-69531.02343750,1,1,0
1314365558.36467195,0.00002785,0.00006711,-69533.20312500,1,1,0
1314365558.41708922,0.00002780,0.00006719,-69535.38281250,1,1,0
1314365558.46466970,0.00002784,0.00006711,-69537.56250000,1,1,0
1314365558.51345825,0.00002780,0.00006719,-69539.74218750,1,1,0
1314365558.56545162,0.00002784,0.00006711,-69541.92187500,1,1,0
1314365558.60623932,0.00002780,0.00006719,-69544.09375000,1,1,0
